Regional Weather Roundup
Issued by NWS

Home | Current Version | Previous Version | Graphics & Text | Print | Product List | Glossary Off
Versions: 1 2 3 4 5 6 7 8 9 10 11 12 13 14 15 16 17 18 19 20 21 22 23 24 25 26 27 28 29 30 31 32 33 34 35 36 37 38 39 40 41 42 43 44 45 46 47 48 49 50

000
ASUS43 KTOP 202259
RWRKS

WEATHER ROUNDUP FOR KANSAS
NATIONAL WEATHER SERVICE GOODLAND KS
600 PM CDT MON OCT 20 2014

NOTE:  "FAIR" INDICATES FEW OR NO CLOUDS BELOW 12,000 FEET WITH NO
SIGNIFICANT WEATHER AND/OR OBSTRUCTIONS TO VISIBILITY.

KSZ001>006-013>018-027>032-041>047-210000-
NORTHWEST KANSAS

CITY           SKY/WX    TMP DP  RH WIND       PRES   REMARKS
GOODLAND       SUNNY     73  40  30 S15       30.10F
HAYS           CLEAR     75  45  33 E8        30.07S
HILL CITY      CLEAR     77  38  24 E6        30.07S
RUSSELL        CLEAR     74  45  35 E7        30.05S
$$

KSZ061>065-074>080-084>089-210000-
SOUTHWEST KANSAS

CITY           SKY/WX    TMP DP  RH WIND       PRES   REMARKS
DODGE CITY     CLEAR     75  40  28 E8        30.08S
ELKHART          N/A     73  51  46 E13         N/A
GARDEN CITY    SUNNY     74  40  29 E10       30.08S
GREAT BEND     CLEAR     73  45  35 NE6       30.06S
LIBERAL        SUNNY     73  52  46 E12       30.09S
$$

KSZ066>073-081>083-090>101-210000-
SOUTHEAST KANSAS

CITY           SKY/WX    TMP DP  RH WIND       PRES   REMARKS
CHANUTE        CLEAR     75  49  39 N6        30.02S
COFFEYVILLE    CLEAR     75  55  49 E6        30.01S
HUTCHINSON     CLEAR     77  42  28 NE6       30.05R
NEWTON         CLEAR     73  45  35 N5        30.07S
PARSONS        CLEAR     76  54  46 CALM      30.03S
WICHITA INTL   CLEAR     78  45  30 NE8       30.03R
WICHITA JABRA  CLEAR     76  43  30 NE5       30.03S
WINFIELD       CLEAR     77  50  38 E7        30.03S
$$

KSZ007>012-019>026-033>040-048>060-102>105-210000-
NORTHEAST KANSAS

CITY           SKY/WX    TMP DP  RH WIND       PRES   REMARKS
CONCORDIA      CLEAR     74  45  35 NE3       30.05S
EMPORIA        CLEAR     73  47  39 N3        30.03S
LAWRENCE       CLEAR     72  43  35 N3        30.03S HAZE
MANHATTAN      CLEAR     73  45  36 NE3       30.04R
OLATHE IND     CLEAR     68  48  48 N5        30.04R
OLATHE EXE     CLEAR     72  44  36 N6        30.03R
SALINA         CLEAR     77  44  30 E3        30.05S
TOPEKA BILLARD CLEAR     72  45  37 N6        30.04R
TOPEKA FORBES  CLEAR     72  45  37 N6        30.04S
$$



USA.gov is the U.S. government's official web portal to all federal, state and local government web resources and services.